Home > Weather > Maldonado > Past weeks

Flag for Uruguay Weather for the Past 2 Weeks in Maldonado, Uruguay

Now
79 °F

Rain. Overcast.


Feels Like: 82 °F
Forecast: 69 / 83 °F
Wind: No wind

Location: Capitan Corbeta

Current Time: Feb 8, 2016 at 11:11:12 PM

Latest Report: Feb 8, 2016 at 10:00 PM


Visibility: 2 mi

Pressure: 29.80 "Hg

Humidity: 89%

Dew point: 75 °F

Location of MaldonadoLocation

Historic Weather in Maldonado — Graph

°F

Maldonado Temperature Yesterday

Maximum temperature yesterday: 88 °F (at 3:00 PM)
Minimum temperature yesterday: 66 °F (at 5:00 AM)
Average temperature yesterday: 76 °F

High & Low Weather Summary for the Past Weeks

 TemperatureHumidityPressure
High88 °F (Feb 7, 3:00 PM)100% (Jan 28, 7:00 AM)30.12 "Hg (Jan 28, 7:00 AM)
Low59 °F (Feb 1, 6:00 AM)25% (Jan 26, 6:00 PM)29.59 "Hg (Jan 25, 2:00 AM)
Average73 °F66%29.94 "Hg
* Reported Jan 24 10:00 PM — Feb 8 10:00 PM, Maldonado, Weather by CustomWeather, © 2016

Note: Actual official high and low records may vary slightly from our data, if they occured in-between our weather recording intervals... More about our weather records

Advertising

Maldonado Weather History for the Previous 24 Hours

 ConditionsComfort  
Time TempWeatherWind HumidityBarometerVisibility
10:00 PM
Mon, Feb 8
79 °FRain. Overcast.No wind89%29.80 "Hg2 mi
9:00 PM77 °FLight rain. Overcast.No wind89%29.77 "Hg4 mi
8:00 PM73 °FLight rain. Clear.2 mph83%29.77 "Hg6 mi
7:00 PM77 °FLight rain. Clear.6 mph79%29.74 "HgN/A
6:00 PM77 °FPartly sunny.5 mph83%29.77 "HgN/A
5:00 PM77 °FLight rain. Overcast.2 mph79%29.77 "Hg5 mi
4:00 PM82 °FOvercast.6 mph66%29.77 "HgN/A
3:00 PM84 °FOvercast.9 mph62%29.77 "HgN/A
2:00 PM84 °FOvercast.12 mph58%29.77 "HgN/A
1:00 PM84 °FMostly cloudy.10 mph58%29.77 "HgN/A
12:00 PM84 °FMore clouds than sun.9 mph58%29.80 "HgN/A
11:00 AM82 °FBroken clouds.8 mph66%29.80 "HgN/A
10:00 AM79 °FPassing clouds.3 mph74%29.80 "HgN/A
9:00 AM75 °FScattered clouds.6 mph78%29.83 "HgN/A
8:00 AM75 °FRain. Broken clouds.6 mph78%29.83 "HgN/A
7:00 AM73 °FBroken clouds.9 mph78%29.80 "HgN/A
6:00 AM73 °FPartly cloudy.9 mph78%29.80 "HgN/A
5:00 AM73 °FClear.9 mph78%29.77 "Hg10 mi
4:00 AM73 °FClear.17 mph78%29.77 "Hg10 mi
3:00 AM73 °FClear.17 mph78%29.80 "Hg10 mi
2:00 AM73 °FClear.17 mph78%29.80 "Hg10 mi
12:00 AM75 °FClear.17 mph74%29.80 "Hg10 mi
11:30 PM
Sun, Feb 7
75 °FClear.17 mph74%29.77 "Hg10 mi
11:00 PM73 °FClear.14 mph74%29.83 "Hg10 mi
Weather by CustomWeather, © 2016

See weather overviewHow to use our weather pages